Location: Boullarre
(49.1305°N, 3.0047°E)
Time: 15:29:08
(UTC+00:00)

Tiangong - Visible Passes

Search period start: 08 June 2023 00:00
Search period end: 18 June 2023 00:00
Orbit: 386 x 390 km, 41.5° (Epoch: 08 June)

Date Brightness Start Highest point End Pass type
(mag) Time Alt. Az. Time Alt. Az. Time Alt. Az.
08 Jun -0.6 02:07:32 18° SSW 02:08:14 20° S 02:10:38 10° SE visible
09 Jun 0.3 01:11:32 12° SE 01:11:32 12° SE 01:12:01 10° SE visible
09 Jun -0.6 02:43:48 11° SW 02:46:09 20° S 02:48:35 10° SE visible
10 Jun -0.6 01:47:53 21° S 01:47:53 21° S 01:50:10 10° SE visible
11 Jun -0.5 02:24:22 15° SW 02:25:29 18° S 02:27:44 10° SE visible
12 Jun 0.2 01:28:51 13° SE 01:28:51 13° SE 01:29:23 10° SE visible
12 Jun 0.0 03:02:15 10° SW 03:03:08 11° SSW 03:04:01 10° S visible
13 Jun 0.2 02:06:07 11° SSE 02:06:07 11° SSE 02:06:26 10° SSE visible
15 Jun 0.1 21:30:32 10° SSW 21:31:04 12° S 21:31:04 12° S visible
16 Jun 0.1 22:07:27 10° SW 22:08:09 14° SW 22:08:09 14° SW visible
17 Jun -0.5 21:08:49 10° SW 21:11:05 18° S 21:12:22 15° SE visible
